This is the latest recevied weather packets stored in our database for station/object KC5DP. If no packets are shown the sender has not sent any weather packets the latest 10 day(s).
| Time | Temp. | Humidity | Pressure | Rain* | Wind** | Luminosity | Snow |
|---|---|---|---|---|---|---|---|
| 1778076218 | 25° C | 91% | 1012.2 hPa | 0 mm | - | 107 W/m² | - |
| 1778075916 | 25° C | 92% | 1012.1 hPa | 0 mm | - | 114 W/m² | - |
| 1778075612 | 25° C | 92% | 1012.1 hPa | 0 mm | - | 110 W/m² | - |
| 1778075308 | 25° C | 92% | 1012.1 hPa | 0 mm | - | 144 W/m² | - |
| 1778075005 | 24.44° C | 93% | 1012.1 hPa | 0 mm | - | 113 W/m² | - |
| 1778074702 | 24.44° C | 93% | 1011.9 hPa | 0 mm | - | 67 W/m² | - |
| 1778074399 | 24.44° C | 93% | 1012 hPa | 0 mm | - | 57 W/m² | - |
| 1778074096 | 24.44° C | 93% | 1011.8 hPa | 0 mm | - | 50 W/m² | - |
| 1778073793 | 24.44° C | 93% | 1011.8 hPa | 0 mm | - | 54 W/m² | - |
| 1778073491 | 24.44° C | 94% | 1011.9 hPa | 0 mm | - | 63 W/m² | - |
| 1778073187 | 23.89° C | 94% | 1011.9 hPa | 0 mm | - | 56 W/m² | - |
| 1778072884 | 23.89° C | 94% | 1011.7 hPa | 0 mm | - | 38 W/m² | - |
| 1778072580 | 23.89° C | 94% | 1011.8 hPa | 0 mm | - | 56 W/m² | - |
| 1778072279 | 23.89° C | 94% | 1011.6 hPa | 0 mm | - | 34 W/m² | - |
| 1778071976 | 23.89° C | 94% | 1011.7 hPa | 0 mm | - | 30 W/m² | - |
| 1778071674 | 23.89° C | 94% | 1011.7 hPa | 0 mm | - | 28 W/m² | - |
| 1778071372 | 23.89° C | 94% | 1011.6 hPa | 0 mm | - | 33 W/m² | - |
| 1778071069 | 23.89° C | 94% | 1011.6 hPa | 0 mm | - | 38 W/m² | - |
| 1778070768 | 23.89° C | 94% | 1011.4 hPa | 0 mm | - | 44 W/m² | - |
| 1778070464 | 23.33° C | 94% | 1011.3 hPa | 0 mm | - | 38 W/m² | - |
| 1778070161 | 23.33° C | 95% | 1011.3 hPa | 0 mm | - | 51 W/m² | - |
| 1778069859 | 23.33° C | 95% | 1011.4 hPa | 0 mm | - | 35 W/m² | - |
| 1778069556 | 23.33° C | 95% | 1011.4 hPa | 0 mm | - | 31 W/m² | - |
| 1778069253 | 23.33° C | 95% | 1011.3 hPa | 0 mm | - | 19 W/m² | - |
| 1778068951 | 23.33° C | 95% | 1011.3 hPa | 0 mm | - | 19 W/m² | - |
* Rain latest hour (hover to see other rain measurements)
** Current wind speed in m/s (hover to see current wind gust speed)